Home > Weather > Augusta > Past weeks

Flag for USA Past Weather in Augusta, Georgia, USA — Yesterday and Last 2 Weeks

Now
78 °F

Clear.


Feels Like: 80 °F
Forecast: 72 / 92 °F
Wind: 5 mph from Southeast

Location: Daniel Field

Current Time: Aug 27, 2016 at 4:36:06 AM

Latest Report: Aug 27, 2016 at 3:53 AM


Visibility: 10 mi

Pressure: 30.06 "Hg

Humidity: 79%

Dew Point: 71 °F

Location of AugustaLocation

Past Weather in Augusta — Graph

°F

Augusta Temperature Yesterday

Maximum temperature yesterday: 95 °F (at 2:53 PM)
Minimum temperature yesterday: 77 °F (at 3:53 AM)
Average temperature yesterday: 86 °F

High & Low Weather Summary for the Past Weeks

 TemperatureHumidityPressure
High97 °F (Aug 17, 3:53 PM)93% (Aug 12, 2:53 AM)30.27 "Hg (Aug 12, 2:53 AM)
Low75 °F (Aug 25, 3:53 AM)37% (Aug 23, 4:53 PM)29.88 "Hg (Aug 20, 5:53 PM)
Average84 °F67%30.08 "Hg
* Reported Aug 12 2:53 AM — Aug 27 2:53 AM, Augusta, Weather by CustomWeather, © 2016

Note: Actual official high and low records may vary slightly from our data, if they occured in-between our weather recording intervals... More about our weather records

Advertising

Augusta Weather History for the Previous 24 Hours

Scroll right to see more
 ConditionsComfort  
Time TempWeatherWind HumidityBarometerVisibility
2:53 AM
Sat, Aug 27
79 °FClear.3 mph77%30.07 "Hg10 mi
1:53 AM80 °FClear.3 mph74%30.08 "Hg10 mi
12:53 AM82 °FClear.5 mph70%30.09 "Hg10 mi
11:53 PM
Fri, Aug 26
83 °FClear.6 mph68%30.09 "Hg10 mi
10:53 PM84 °FClear.6 mph65%30.07 "Hg10 mi
9:53 PM87 °FClear.3 mph57%30.06 "Hg10 mi
8:53 PM88 °FSunny.5 mph55%30.03 "Hg10 mi
7:53 PM91 °FSunny.7 mph49%30.01 "Hg10 mi
6:53 PM94 °FSunny.6 mph44%30.00 "Hg10 mi
5:53 PM95 °FSunny.10 mph43%30.00 "Hg10 mi
4:53 PM95 °FSunny.10 mph43%30.00 "Hg10 mi
3:53 PM95 °FPassing clouds.12 mph44%30.02 "Hg10 mi
2:53 PM95 °FSunny.12 mph43%30.05 "Hg10 mi
1:53 PM94 °FSunny.8 mph44%30.07 "Hg10 mi
12:53 PM92 °FSunny.5 mph47%30.08 "Hg10 mi
11:53 AM91 °FSunny.3 mph47%30.10 "Hg10 mi
10:53 AM87 °FSunny.3 mph55%30.11 "Hg10 mi
9:53 AM84 °FSunny.3 mph63%30.10 "Hg10 mi
8:53 AM78 °FPartly sunny.No wind74%30.10 "Hg10 mi
7:53 AM78 °FClear.No wind74%30.10 "Hg10 mi
6:53 AM77 °FPassing clouds.No wind74%30.09 "Hg10 mi
5:53 AM77 °FPassing clouds.No wind74%30.09 "Hg10 mi
4:53 AM77 °FClear.No wind74%30.09 "Hg10 mi
Weather by CustomWeather, © 2016

See weather overviewHow to use our weather pages